Погода в Сеуле

Южная Корея     37°34′14″N   126°58′36″E
темп.,
°C
ветер,
м/с
пор.,
м/с
влажн.,
%
обл.,
%
осадки,
мм/ч
давл.,
гПа
погр.,
м
18 октября, пн
пн1800:00+7сз14270 0.0 1027493
03:00+7св12290 0.0 1026230
06:00+7вюв12326 0.0 1026138
09:00+8в223379 0.0 1026311
12:00+13зюз013393 0.0 1024716
15:00+14зюз2343100 0.0 1022935
18:00+13вюв1370100 0.5 1022301
21:00+12ююв1470100 1.0 1022266
19 октября, вт
вт1900:00+11ссв2483100 1.7 1022301
03:00+10в1286100 3.3 1020146
06:00+10вюв129114 8.1 1019184
09:00+11в1284100 9.1 1019177
12:00+13сз57575 0.9 10191374
15:00+13сз68355 0.9 10181826
18:00+11сз57464 0.0 10191355
21:00+9ссз25574 0.0 1021578
20 октября, ср
ср2000:00+9с13644 0.0 1022393
03:00+8ссз11685 0.0 1023187
06:00+8с01715 0.0 102388
09:00+9зюз01615 0.0 1024638
12:00+13зюз11425 0.0 10231247
15:00+14з32311 0.0 10211491
18:00+12зсз33300 0.0 1021587
21:00+10зсз22330 0.0 1022400
21 октября, чт
чт2100:00+9зсз11360 0.0 1022144
03:00+8ссз01380 0.0 102235
06:00+8св00420 0.0 102223
09:00+10в11380 0.0 1023420
12:00+14сз12240 0.0 10221095
15:00+15сз34250 0.0 10201757
18:00+13сз34310 0.0 10211150
21:00+12сз14433 0.0 1022275
22 октября, пт
пт2200:00+11ссв11495 0.0 102233
03:00+10св11446 0.0 102356
06:00+9св11460 0.0 102430
09:00+11всв11410 0.0 1025350
12:00+15сз11250 0.0 10251183
15:00+16сз22180 0.0 10231781
18:00+14сз34280 0.0 1023852
21:00+13сз24350 0.0 1024345